Yatton Keynell, United Kingdom

8:27 PM GMT on March 24, 2019 (GMT +0000)
Yatton Keynell

Weather History for 03740 - August, 1999

Change the Weather History Date:

Friday, August 6, 1999

  Actual Average Record
Temperature  
Mean Temperature 64 °F -  
Max Temperature 71 °F 67 °F - ()
Min Temperature 57 °F 52 °F - ()
Degree Days  
Heating Degree Days 1    
Growing Degree Days 14 (Base 50)    
Moisture  
Dew Point 58 °F    
Average Humidity 79    
Maximum Humidity 100    
Minimum Humidity 57    
Precipitation  
Precipitation 0.00 in 0.08 in - ()
Sea Level Pressure  
Sea Level Pressure 29.78 in    
Wind  
Wind Speed 4 mph ()    
Max Wind Speed 10 mph    
Max Gust Speed -    
Visibility 5.6 miles    
Events Rain    
T = Trace of Precipitation, MM = Missing Value Source: Averaged Metar Reports

Daily Weather History Graph

Daily Weather History Graph

Search for Another Location

Airport or City:

Astronomy

Aug. 06, 1999 Rise Set
Actual Time 5:38 AM BST 8:48 PM BST
Civil Twilight 4:58 AM BST 9:27 PM BST
Nautical Twilight 4:06 AM BST 10:19 PM BST
Astronomical Twilight 2:57 AM BST 11:26 PM BST
Moon 12:48 AM BST (8/6) 4:11 PM BST (8/6)
Length of Visible Light 16h 28m
Length of Day
15h 09m
Waning Crescent, 31% of the Moon is Illuminated
Aug 6
Waning Crescent
Aug 11
New
Aug 19
First Quarter
Aug 27
Full
Sep 2
Last Quarter

Hourly Weather History & Observations

Time (BST) Temp. Dew Point Humidity Pressure Visibility Wind Dir Wind Speed Gust Speed Precip Events Conditions
12:50 AM 59.0 °F 55.4 °F 88% 29.89 in - South 4.6 mph - N/A   Clear
1:50 AM 59.0 °F 55.4 °F 88% 29.89 in 6.2 mi South 3.5 mph - N/A Rain Light Rain
2:50 AM 57.2 °F 57.2 °F 100% 29.86 in - Calm Calm - N/A   Clear
3:50 AM 57.2 °F 55.4 °F 94% 29.86 in - Calm Calm - N/A   Clear
4:50 AM 59.0 °F 55.4 °F 88% 29.86 in - SE 3.5 mph - N/A   Clear
5:50 AM 59.0 °F 55.4 °F 88% 29.86 in - Calm Calm - N/A   Clear
6:50 AM 59.0 °F 55.4 °F 88% 29.86 in 6.2 mi SE 8.1 mph - N/A   Scattered Clouds
7:50 AM 62.6 °F 57.2 °F 82% 29.83 in 6.2 mi SE 8.1 mph - N/A   Mostly Cloudy
8:50 AM 66.2 °F 59.0 °F 78% 29.83 in 6.2 mi SE 6.9 mph - N/A   Mostly Cloudy
9:50 AM 69.8 °F 59.0 °F 68% 29.83 in 6.2 mi SE 9.2 mph - N/A   Mostly Cloudy
10:50 AM 69.8 °F 59.0 °F 68% 29.83 in 6.2 mi SSE 8.1 mph - N/A   Mostly Cloudy
11:50 AM 71.6 °F 59.0 °F 64% 29.83 in 6.2 mi SSE 10.4 mph - N/A   Mostly Cloudy
12:50 PM 71.6 °F 59.0 °F 64% 29.80 in 6.2 mi South 10.4 mph - N/A   Mostly Cloudy
1:50 PM 71.6 °F 57.2 °F 60% 29.80 in 6.2 mi SE 10.4 mph - N/A   Mostly Cloudy
2:50 PM 71.6 °F 55.4 °F 57% 29.77 in 6.2 mi SSE 8.1 mph - N/A   Mostly Cloudy
3:50 PM 71.6 °F 57.2 °F 60% 29.74 in 6.2 mi SE 3.5 mph - N/A Rain Light Rain Showers
4:50 PM 71.6 °F 59.0 °F 64% 29.71 in 6.2 mi East 6.9 mph - N/A   Overcast
5:50 PM 71.6 °F 60.8 °F 69% 29.71 in 6.2 mi East 8.1 mph - N/A Rain Light Rain
6:50 PM 69.8 °F 60.8 °F 73% 29.68 in 6.2 mi ENE 6.9 mph - N/A Rain Light Rain
7:50 PM 68.0 °F 60.8 °F 78% 29.68 in 6.2 mi North 6.9 mph - N/A Rain Light Rain
8:50 PM 66.2 °F 60.8 °F 83% 29.68 in 6.2 mi Calm Calm - N/A Rain Rain
9:50 PM 64.4 °F 62.6 °F 94% 29.68 in 3.1 mi SSW 2.3 mph - N/A Rain Rain
10:50 PM 62.6 °F 62.6 °F 100% 29.68 in 1.9 mi SSW 2.3 mph - N/A Rain Rain
11:50 PM 62.6 °F 60.8 °F 94% 29.68 in 2.8 mi Calm Calm - N/A Rain Rain